• Em Portugal
  • Lista de países
  • Para 7 dias
  • Temperatura da água
  • Mapas de satélite
  • Mapa do tempo
  • Widgets de tempo
  • user-avatar
    Iniciar Sessão

    Previsão horária em Stepanakert

    Hoje, 24 Junho, Domingo

    Tempo Temperatura Precipitação Vento Pressão Humidade
    00:00 +21°C° 0 mm 2 m/s 691 mmHg 48%
    01:00 +20°C° 0 mm 2 m/s 691 mmHg 49%
    02:00 +20°C° 0 mm 2 m/s 691 mmHg 50%
    03:00 +20°C° 0 mm 2 m/s 690 mmHg 51%
    04:00 +20°C° 0 mm 2 m/s 691 mmHg 51%
    05:00 +21°C° 0 mm 2 m/s 691 mmHg 51%
    06:00 +23°C° 0 mm 2 m/s 692 mmHg 51%
    07:00 +25°C° 0 mm 2 m/s 692 mmHg 47%
    08:00 +26°C° 0 mm 2 m/s 692 mmHg 43%
    09:00 +28°C° 0 mm 2 m/s 692 mmHg 39%
    10:00 +29°C° 0 mm 3 m/s 692 mmHg 38%
    11:00 +30°C° 0 mm 3 m/s 692 mmHg 37%
    12:00 +31°C° 0 mm 3 m/s 692 mmHg 35%
    13:00 +33°C° 0,1 mm 3 m/s 692 mmHg 35%
    14:00 +33°C° 0,1 mm 3 m/s 692 mmHg 35%
    15:00 +33°C° 0 mm 3 m/s 692 mmHg 36%
    16:00 +31°C° 0,1 mm 3 m/s 692 mmHg 38%
    17:00 +31°C° 0,1 mm 3 m/s 692 mmHg 40%
    18:00 +30°C° 0,1 mm 2 m/s 692 mmHg 43%
    19:00 +28°C° 0 mm 2 m/s 692 mmHg 47%
    20:00 +26°C° 0 mm 2 m/s 692 mmHg 51%
    21:00 +24°C° 0 mm 2 m/s 692 mmHg 55%
    22:00 +24°C° 0 mm 2 m/s 692 mmHg 57%
    23:00 +23°C° 0 mm 2 m/s 692 mmHg 58%

    Amanhã, 25 Junho, Segunda-feira

    Tempo Temperatura Precipitação Vento Pressão Humidade
    00:00 +21°C° 0 mm 2 m/s 692 mmHg 59%
    01:00 +21°C° 0 mm 2 m/s 692 mmHg 59%
    02:00 +21°C° 0 mm 2 m/s 692 mmHg 60%
    03:00 +20°C° 0 mm 2 m/s 692 mmHg 60%
    04:00 +21°C° 0 mm 2 m/s 693 mmHg 58%
    05:00 +23°C° 0 mm 2 m/s 693 mmHg 56%
    06:00 +23°C° 0 mm 1 m/s 693 mmHg 54%
    07:00 +25°C° 0 mm 2 m/s 694 mmHg 48%
    08:00 +27°C° 0 mm 2 m/s 694 mmHg 42%
    09:00 +28°C° 0 mm 2 m/s 694 mmHg 36%
    10:00 +29°C° 0 mm 3 m/s 694 mmHg 35%
    11:00 +30°C° 0 mm 3 m/s 694 mmHg 33%
    12:00 +31°C° 0 mm 3 m/s 694 mmHg 32%
    13:00 +33°C° 0 mm 4 m/s 693 mmHg 32%
    14:00 +33°C° 0 mm 4 m/s 693 mmHg 32%
    15:00 +33°C° 0 mm 4 m/s 693 mmHg 33%
    16:00 +33°C° 0 mm 4 m/s 693 mmHg 35%
    17:00 +31°C° 0 mm 3 m/s 693 mmHg 37%
    18:00 +30°C° 0 mm 3 m/s 692 mmHg 39%
    19:00 +28°C° 0 mm 3 m/s 692 mmHg 43%
    20:00 +26°C° 0 mm 2 m/s 692 mmHg 46%
    21:00 +24°C° 0 mm 2 m/s 692 mmHg 50%
    22:00 +24°C° 0 mm 2 m/s 692 mmHg 51%
    23:00 +23°C° 0 mm 2 m/s 692 mmHg 51%

    Depois de amanhã, 26 Junho, Terça-feira

    Tempo Temperatura Precipitação Vento Pressão Humidade
    00:00 +21°C° 0 mm 2 m/s 692 mmHg 52%
    01:00 +21°C° 0 mm 2 m/s 692 mmHg 50%
    02:00 +21°C° 0 mm 2 m/s 692 mmHg 48%
    03:00 +21°C° 0 mm 2 m/s 692 mmHg 46%
    04:00 +21°C° 0 mm 2 m/s 692 mmHg 45%
    05:00 +23°C° 0 mm 2 m/s 692 mmHg 44%
    06:00 +24°C° 0 mm 2 m/s 692 mmHg 43%
    07:00 +25°C° 0 mm 2 m/s 692 mmHg 39%
    08:00 +27°C° 0 mm 2 m/s 692 mmHg 35%
    09:00 +29°C° 0 mm 2 m/s 692 mmHg 30%
    10:00 +30°C° 0 mm 2 m/s 692 mmHg 29%
    11:00 +31°C° 0 mm 2 m/s 692 mmHg 28%
    12:00 +33°C° 0 mm 3 m/s 692 mmHg 27%
    13:00 +34°C° 0 mm 3 m/s 692 mmHg 27%
    14:00 +34°C° 0 mm 3 m/s 691 mmHg 27%
    15:00 +35°C° 0 mm 3 m/s 691 mmHg 27%
    16:00 +34°C° 0 mm 3 m/s 691 mmHg 30%
    17:00 +32°C° 0 mm 2 m/s 691 mmHg 32%
    18:00 +32°C° 0 mm 2 m/s 690 mmHg 34%
    19:00 +29°C° 0 mm 2 m/s 691 mmHg 38%
    20:00 +27°C° 0 mm 2 m/s 691 mmHg 42%
    21:00 +25°C° 0 mm 2 m/s 691 mmHg 46%
    22:00 +25°C° 0 mm 2 m/s 691 mmHg 47%
    23:00 +24°C° 0 mm 2 m/s 691 mmHg 48%

    27 Junho, Quarta-feira

    Tempo Temperatura Precipitação Vento Pressão Humidade
    00:00 +23°C° 0 mm 2 m/s 691 mmHg 48%
    01:00 +23°C° 0 mm 2 m/s 690 mmHg 48%
    02:00 +23°C° 0 mm 2 m/s 690 mmHg 48%
    03:00 +23°C° 0 mm 2 m/s 690 mmHg 48%
    04:00 +23°C° 0 mm 2 m/s 690 mmHg 47%
    05:00 +24°C° 0 mm 2 m/s 691 mmHg 46%
    06:00 +25°C° 0 mm 2 m/s 691 mmHg 46%
    07:00 +27°C° 0 mm 2 m/s 691 mmHg 41%
    08:00 +28°C° 0 mm 2 m/s 691 mmHg 37%
    09:00 +30°C° 0 mm 2 m/s 691 mmHg 32%
    10:00 +31°C° 0 mm 2 m/s 691 mmHg 31%
    11:00 +32°C° 0 mm 2 m/s 691 mmHg 30%
    12:00 +34°C° 0 mm 3 m/s 691 mmHg 28%
    13:00 +35°C° 0 mm 3 m/s 691 mmHg 28%
    14:00 +35°C° 0 mm 3 m/s 690 mmHg 28%
    15:00 +35°C° 0 mm 3 m/s 690 mmHg 28%
    16:00 +35°C° 0 mm 3 m/s 690 mmHg 30%
    17:00 +34°C° 0 mm 2 m/s 690 mmHg 32%
    18:00 +34°C° 0 mm 2 m/s 690 mmHg 34%
    19:00 +31°C° 0 mm 2 m/s 690 mmHg 38%
    20:00 +28°C° 0 mm 2 m/s 690 mmHg 42%
    21:00 +26°C° 0 mm 2 m/s 691 mmHg 45%
    22:00 +26°C° 0 mm 2 m/s 691 mmHg 46%
    23:00 +25°C° 0 mm 2 m/s 691 mmHg 47%

    28 Junho, Quinta-feira

    Tempo Temperatura Precipitação Vento Pressão Humidade
    00:00 +24°C° 0 mm 2 m/s 691 mmHg 48%
    01:00 +24°C° 0 mm 2 m/s 691 mmHg 48%
    02:00 +24°C° 0 mm 2 m/s 691 mmHg 47%
    03:00 +23°C° 0 mm 2 m/s 691 mmHg 46%
    04:00 +24°C° 0 mm 2 m/s 691 mmHg 44%
    05:00 +25°C° 0 mm 2 m/s 691 mmHg 43%
    06:00 +25°C° 0 mm 2 m/s 691 mmHg 42%
    07:00 +27°C° 0 mm 2 m/s 692 mmHg 37%
    08:00 +29°C° 0 mm 2 m/s 692 mmHg 32%
    09:00 +31°C° 0 mm 2 m/s 692 mmHg 28%
    10:00 +32°C° 0 mm 2 m/s 692 mmHg 27%
    11:00 +34°C° 0 mm 3 m/s 692 mmHg 26%
    12:00 +35°C° 0 mm 3 m/s 692 mmHg 24%
    13:00 +36°C° 0 mm 3 m/s 692 mmHg 24%
    14:00 +36°C° 0 mm 3 m/s 691 mmHg 24%
    15:00 +36°C° 0 mm 3 m/s 691 mmHg 24%
    16:00 +36°C° 0 mm 3 m/s 691 mmHg 26%
    17:00 +35°C° 0 mm 3 m/s 691 mmHg 28%
    18:00 +34°C° 0 mm 3 m/s 691 mmHg 29%
    19:00 +31°C° 0 mm 3 m/s 691 mmHg 32%
    20:00 +29°C° 0 mm 2 m/s 691 mmHg 34%
    21:00 +26°C° 0 mm 2 m/s 691 mmHg 37%
    22:00 +26°C° 0 mm 2 m/s 691 mmHg 37%
    23:00 +25°C° 0 mm 2 m/s 691 mmHg 37%

    29 Junho, Sexta-feira

    Tempo Temperatura Precipitação Vento Pressão Humidade
    00:00 +24°C° 0 mm 3 m/s 691 mmHg 37%
    01:00 +24°C° 0 mm 2 m/s 691 mmHg 36%
    02:00 +24°C° 0 mm 2 m/s 691 mmHg 35%
    03:00 +24°C° 0 mm 2 m/s 690 mmHg 34%
    04:00 +24°C° 0 mm 2 m/s 691 mmHg 35%
    05:00 +25°C° 0 mm 2 m/s 691 mmHg 35%
    06:00 +25°C° 0 mm 2 m/s 691 mmHg 35%
    07:00 +27°C° 0 mm 2 m/s 691 mmHg 32%
    08:00 +29°C° 0 mm 2 m/s 691 mmHg 28%
    09:00 +31°C° 0 mm 2 m/s 692 mmHg 25%
    10:00 +32°C° 0 mm 2 m/s 691 mmHg 24%
    11:00 +35°C° 0 mm 2 m/s 691 mmHg 23%
    12:00 +36°C° 0 mm 3 m/s 691 mmHg 22%
    13:00 +36°C° 0 mm 3 m/s 691 mmHg 22%
    14:00 +36°C° 0 mm 3 m/s 690 mmHg 22%
    15:00 +37°C° 0 mm 3 m/s 690 mmHg 22%
    16:00 +36°C° 0 mm 3 m/s 690 mmHg 24%
    17:00 +35°C° 0 mm 3 m/s 690 mmHg 26%
    18:00 +35°C° 0 mm 2 m/s 690 mmHg 28%
    19:00 +31°C° 0 mm 2 m/s 690 mmHg 31%
    20:00 +29°C° 0 mm 2 m/s 690 mmHg 33%
    21:00 +27°C° 0 mm 2 m/s 690 mmHg 36%
    22:00 +26°C° 0 mm 2 m/s 690 mmHg 37%
    23:00 +25°C° 0 mm 2 m/s 690 mmHg 37%
    Mostrar mais